Location: Borgo
(42.3939°N, 9.2791°E)
Time: 21:08:22
(UTC+00:00)

CZ-2D R/B - Pass Details

Date: 24 January 2021
Orbit: 521 x 538 km, 97.4° (Epoch: 02 March)

Event Time Altitude Azimuth Distance (km) Brightness Sun altitude
Rises 17:40:49 0° 169° (S) 2,668 6.9 -13.7°
Reaches altitude 10° 17:42:56 10° 171° (S) 1,780 6.0 -14.1°
Maximum altitude 17:46:46 79° 258° (WSW) 547 3.3 -14.8°
Drops below altitude 10° 17:50:38 10° 346° (NNW) 1,785 6.0 -15.5°
Sets 17:52:45 0° 347° (NNW) 2,677 6.9 -15.9°
